Southend-On-Sea, United Kingdom

7:41 PM GMT on November 19, 2017 (GMT +0000)
Southend

Weather History for EGMC - November, 2017

Change the Weather History Date:

Tuesday, November 14, 2017

  Actual Average Record
Temperature  
Mean Temperature 46 °F -  
Max Temperature 55 °F 47 °F 59 °F (2008)
Min Temperature 37 °F 38 °F 32 °F (1996)
Degree Days  
Heating Degree Days 19    
Moisture  
Dew Point 42 °F    
Average Humidity 79    
Maximum Humidity 87    
Minimum Humidity 70    
Precipitation  
Precipitation 0.00 in - - ()
Sea Level Pressure  
Sea Level Pressure 30.21 in    
Wind  
Wind Speed 9 mph ()    
Max Wind Speed 14 mph    
Max Gust Speed -    
Visibility 6.2 miles    
Events Rain    
Averages and records for this station are not official NWS values.
T = Trace of Precipitation, MM = Missing Value Source: Averaged Metar Reports

Daily Weather History Graph

Daily Weather History Graph

Search for Another Location

Airport or City:

Trip Planner

Search our weather history database for the weather conditions in past years. The results will help you decide how hot, cold, wet, or windy it might be!

Date:

Astronomy

Nov. 14, 2017 Rise Set
Actual Time 7:13 AM GMT 4:08 PM GMT
Civil Twilight 6:36 AM GMT 4:45 PM GMT
Nautical Twilight 5:56 AM GMT 5:26 PM GMT
Astronomical Twilight 5:16 AM GMT 6:05 PM GMT
Moon 2:22 AM GMT (11/14) 2:58 PM GMT (11/14)
Length of Visible Light 10h 08m
Length of Day
8h 54m
Waning Crescent, 15% of the Moon is Illuminated
Nov 14
Waning Crescent
Nov 18
New
Nov 26
First Quarter
Dec 3
Full
Dec 10
Last Quarter

Hourly Weather History & Observations

Time (GMT) Temp. Windchill Dew Point Humidity Pressure Visibility Wind Dir Wind Speed Gust Speed Precip Events Conditions
12:50 AM 37.4 °F 32.1 °F 32.0 °F 81% 30.27 in 6.2 mi SW 6.9 mph - N/A   Partly Cloudy
2:50 AM 41.0 °F 36.4 °F 32.0 °F 70% 30.24 in 6.2 mi SW 6.9 mph - N/A   Partly Cloudy
3:50 AM 42.8 °F 37.0 °F 33.8 °F 70% 30.24 in 6.2 mi WSW 10.4 mph - N/A   Mostly Cloudy
4:50 AM 42.8 °F 37.0 °F 35.6 °F 76% 30.21 in 6.2 mi SW 10.4 mph - N/A   Mostly Cloudy
5:20 AM 44.6 °F 39.7 °F 35.6 °F 71% 30.21 in 6.2 mi SW 9.2 mph - N/A   Mostly Cloudy
5:50 AM 44.6 °F 39.2 °F 37.4 °F 76% 30.18 in 6.2 mi SW 10.4 mph - N/A   Partly Cloudy
6:20 AM 44.6 °F 39.2 °F 37.4 °F 76% 30.18 in 6.2 mi SW 10.4 mph - N/A   Partly Cloudy
6:50 AM 44.6 °F 39.7 °F 37.4 °F 76% 30.18 in 6.2 mi SW 9.2 mph - N/A   Mostly Cloudy
7:20 AM 44.6 °F 39.2 °F 37.4 °F 76% 30.18 in 6.2 mi SW 10.4 mph - N/A Rain Light Rain
7:50 AM 46.4 °F 40.4 °F 39.2 °F 76% 30.21 in 6.2 mi WSW 13.8 mph - N/A   Mostly Cloudy
8:20 AM 46.4 °F 41.1 °F 39.2 °F 76% 30.21 in 6.2 mi WSW 11.5 mph - N/A   Scattered Clouds
8:50 AM 48.2 °F - 41.0 °F 76% 30.21 in 6.2 mi SW 12.7 mph - N/A   Partly Cloudy
9:20 AM 46.4 °F 41.5 °F 41.0 °F 81% 30.21 in 6.2 mi WSW 10.4 mph - N/A   Scattered Clouds
9:50 AM 48.2 °F - 41.0 °F 76% 30.21 in 6.2 mi WSW 10.4 mph - N/A   Scattered Clouds
10:20 AM 46.4 °F 41.9 °F 42.8 °F 87% 30.21 in 6.2 mi WSW 9.2 mph - N/A   Mostly Cloudy
10:50 AM 50.0 °F - 42.8 °F 76% 30.21 in 6.2 mi WSW 9.2 mph - N/A   Mostly Cloudy
11:20 AM 50.0 °F - 42.8 °F 76% 30.21 in 6.2 mi WSW 11.5 mph - N/A   Mostly Cloudy
11:50 AM 50.0 °F - 42.8 °F 76% 30.21 in 6.2 mi WSW 9.2 mph - N/A   Mostly Cloudy
12:20 PM 51.8 °F - 42.8 °F 71% 30.21 in 6.2 mi WSW 11.5 mph - N/A   Mostly Cloudy
12:50 PM 51.8 °F - 44.6 °F 76% 30.21 in 6.2 mi WSW 10.4 mph - N/A   Mostly Cloudy
1:20 PM 53.6 °F - 44.6 °F 72% 30.21 in 6.2 mi WSW 10.4 mph - N/A   Mostly Cloudy
1:50 PM 51.8 °F - 44.6 °F 76% 30.21 in 6.2 mi WSW 11.5 mph - N/A   Mostly Cloudy
2:20 PM 55.4 °F - 48.2 °F 77% 30.21 in 6.2 mi WSW 10.4 mph - N/A   Mostly Cloudy
3:20 PM 51.8 °F - 44.6 °F 76% 30.21 in 6.2 mi WSW 8.1 mph - N/A   Scattered Clouds
3:50 PM 51.8 °F - 44.6 °F 76% 30.21 in 6.2 mi WSW 8.1 mph - N/A   Partly Cloudy
4:20 PM 50.0 °F - 44.6 °F 82% 30.21 in 6.2 mi WSW 8.1 mph - N/A   Scattered Clouds
4:50 PM 51.8 °F - 44.6 °F 76% 30.21 in - WSW 9.2 mph - N/A   Clear
5:20 PM 50.0 °F - 44.6 °F 82% 30.21 in - SW 8.1 mph - N/A   Clear
5:50 PM 50.0 °F - 46.4 °F 87% 30.21 in - WSW 8.1 mph - N/A   Clear
6:20 PM 50.0 °F - 44.6 °F 82% 30.21 in - SW 11.5 mph - N/A   Clear
6:50 PM 50.0 °F - 44.6 °F 82% 30.21 in - SW 10.4 mph - N/A   Clear
7:20 PM 50.0 °F - 46.4 °F 87% 30.21 in 6.2 mi WSW 10.4 mph - N/A Rain Light Rain Showers
7:50 PM 51.8 °F - 46.4 °F 82% 30.21 in 6.2 mi WSW 8.1 mph - N/A   Mostly Cloudy
8:20 PM 51.8 °F - 46.4 °F 82% 30.21 in 6.2 mi WSW 8.1 mph - N/A   Mostly Cloudy
8:50 PM 50.0 °F - 46.4 °F 87% 30.21 in 6.2 mi SW 6.9 mph - N/A   Mostly Cloudy
9:20 PM 50.0 °F - 46.4 °F 87% 30.21 in 6.2 mi SW 6.9 mph - N/A   Mostly Cloudy
9:50 PM 50.0 °F - 46.4 °F 87% 30.21 in 6.2 mi SW 6.9 mph - N/A   Mostly Cloudy
10:20 PM 50.0 °F - 46.4 °F 87% 30.21 in 6.2 mi SW 6.9 mph - N/A   Mostly Cloudy
10:50 PM 50.0 °F - 46.4 °F 87% 30.21 in 6.2 mi WSW 6.9 mph - N/A   Mostly Cloudy
11:20 PM 50.0 °F - 46.4 °F 87% 30.21 in 6.2 mi WSW 9.2 mph - N/A   Overcast
11:50 PM 50.0 °F - 46.4 °F 87% 30.21 in 6.2 mi WSW 9.2 mph - N/A   Overcast